South St. Paul, MN

12:45 AM CST on January 24, 2018 (GMT -0600)
South Saint Paul Municipal-Fleming

Weather History for KSGS - March, 2014

Change the Weather History Date:

Monday, March 10, 2014

  Actual Average (KSTP) Record (KSTP)
Temperature  
Mean Temperature 44 °F -  
Max Temperature 55 °F 32 °F 66 °F (2012)
Min Temperature 33 °F 17 °F -6 °F (2003)
Degree Days  
Heating Degree Days 21    
Moisture  
Dew Point 33 °F    
Average Humidity 67    
Maximum Humidity 92    
Minimum Humidity 41    
Precipitation  
Precipitation 0.00 in - - ()
Sea Level Pressure  
Sea Level Pressure 29.65 in    
Wind  
Wind Speed 2 mph (West)    
Max Wind Speed 10 mph    
Max Gust Speed 10 mph    
Visibility 10 miles    
Events      
Averages and records for this station are not official NWS values.
T = Trace of Precipitation, MM = Missing Value Source: NWS Daily Summary

Daily Weather History Graph

Daily Weather History Graph

Search for Another Location

Airport or City:

Trip Planner

Search our weather history database for the weather conditions in past years. The results will help you decide how hot, cold, wet, or windy it might be!

Date:

Astronomy

Mar. 10, 2014 Rise Set
Actual Time 7:33 AM CDT 7:11 PM CDT
Civil Twilight 7:04 AM CDT 7:40 PM CDT
Nautical Twilight 6:30 AM CDT 8:14 PM CDT
Astronomical Twilight 5:56 AM CDT 8:49 PM CDT
Moon 1:45 PM CDT (3/10) 3:56 AM CDT (3/10)
Length of Visible Light 12h 36m
Length of Day
11h 38m
Waxing Gibbous, 70% of the Moon is Illuminated
Mar 10
Waxing Gibbous
Mar 16
Full
Mar 23
Last Quarter
Mar 30
New
Apr 7
First Quarter

Hourly Weather History & Observations

Time (CDT) Temp. Windchill Dew Point Humidity Pressure Visibility Wind Dir Wind Speed Gust Speed Precip Events Conditions
12:12 AM 37.8 °F - 32.7 °F 82% 29.66 in 10.0 mi Calm Calm - N/A   Scattered Clouds
12:32 AM 37.6 °F 35.1 °F 32.7 °F 83% 29.65 in 10.0 mi SSE 3.5 mph - N/A   Scattered Clouds
12:52 AM 39.6 °F 36.3 °F 34.0 °F 80% 29.65 in 10.0 mi SE 4.6 mph - N/A   Mostly Cloudy
1:12 AM 39.7 °F - 33.6 °F 79% 29.65 in 10.0 mi Calm Calm - N/A   Mostly Cloudy
1:32 AM 37.4 °F - 32.4 °F 82% 29.65 in 10.0 mi Calm Calm - N/A   Scattered Clouds
1:52 AM 36.1 °F - 32.2 °F 86% 29.64 in 10.0 mi Calm Calm - N/A   Clear
2:12 AM 36.0 °F - 32.0 °F 86% 29.65 in 10.0 mi Calm Calm - N/A   Clear
2:32 AM 35.6 °F - 32.0 °F 87% 29.65 in 10.0 mi Calm Calm - N/A   Clear
2:52 AM 35.2 °F - 32.0 °F 88% 29.64 in 10.0 mi Calm Calm - N/A   Clear
3:12 AM 34.7 °F 31.8 °F 31.8 °F 89% 29.63 in 10.0 mi SSE 3.5 mph - N/A   Clear
3:32 AM 35.2 °F - 31.6 °F 87% 29.62 in 10.0 mi Calm Calm - N/A   Clear
3:52 AM 34.3 °F - 31.5 °F 89% 29.62 in 10.0 mi Calm Calm - N/A   Clear
4:12 AM 33.3 °F - 31.1 °F 92% 29.62 in 10.0 mi Calm Calm - N/A   Clear
4:32 AM 33.4 °F - 31.3 °F 92% 29.61 in 10.0 mi Calm Calm - N/A   Clear
4:52 AM 34.2 °F - 32.0 °F 92% 29.61 in 10.0 mi Calm Calm - N/A   Clear
5:12 AM 35.1 °F - 32.5 °F 91% 29.60 in 10.0 mi Calm Calm - N/A   Clear
5:32 AM 33.1 °F - 31.1 °F 92% 29.60 in 7.0 mi Calm Calm - N/A   Clear
5:52 AM 34.7 °F - 32.0 °F 90% 29.60 in 10.0 mi Calm Calm - N/A   Clear
6:12 AM 36.9 °F - 33.3 °F 87% 29.60 in 10.0 mi Calm Calm - N/A   Clear
6:32 AM 38.5 °F - 33.6 °F 83% 29.61 in 10.0 mi Calm Calm - N/A   Clear
6:52 AM 39.2 °F - 33.8 °F 81% 29.61 in 10.0 mi Calm Calm - N/A   Clear
7:12 AM 39.7 °F 36.5 °F 33.4 °F 78% 29.61 in 10.0 mi West 4.6 mph - N/A   Clear
7:32 AM 40.1 °F 38.0 °F 33.3 °F 77% 29.61 in 10.0 mi WNW 3.5 mph - N/A   Clear
7:52 AM 40.1 °F - 33.1 °F 76% 29.61 in 10.0 mi Calm Calm - N/A   Clear
8:12 AM 39.4 °F - 32.9 °F 78% 29.61 in 10.0 mi Calm Calm - N/A   Clear
8:32 AM 40.6 °F - 33.3 °F 75% 29.62 in 10.0 mi Calm Calm - N/A   Clear
8:52 AM 42.1 °F - 33.6 °F 72% 29.62 in 10.0 mi Calm Calm - N/A   Clear
9:12 AM 43.2 °F - 34.2 °F 71% 29.63 in 10.0 mi Calm Calm - N/A   Clear
9:32 AM 45.1 °F 43.7 °F 34.5 °F 66% 29.63 in 10.0 mi WNW 3.5 mph - N/A   Clear
9:52 AM 46.9 °F - 34.7 °F 62% 29.63 in 10.0 mi WNW 6.9 mph - N/A   Clear
10:12 AM 47.7 °F - 35.1 °F 62% 29.63 in 10.0 mi NW 4.6 mph - N/A   Clear
10:32 AM 48.9 °F - 35.2 °F 59% 29.63 in 10.0 mi West 4.6 mph - N/A   Clear
10:52 AM 50.2 °F - 35.4 °F 57% 29.64 in 10.0 mi West 4.6 mph - N/A   Clear
11:12 AM 51.1 °F - 35.6 °F 55% 29.65 in 10.0 mi West 6.9 mph - N/A   Clear
11:32 AM 52.7 °F - 35.6 °F 52% 29.65 in 10.0 mi West 5.8 mph - N/A   Clear
11:52 AM 53.2 °F - 34.9 °F 50% 29.65 in 10.0 mi WNW 9.2 mph - N/A   Clear
12:12 PM 53.8 °F - 34.7 °F 48% 29.65 in 10.0 mi WNW 6.9 mph - N/A   Clear
12:32 PM 53.4 °F - 34.7 °F 49% 29.65 in 10.0 mi West 8.1 mph - N/A   Clear
12:52 PM 53.2 °F - 34.5 °F 49% 29.65 in 10.0 mi WNW 10.4 mph - N/A   Clear
1:12 PM 53.1 °F - 34.5 °F 49% 29.65 in 10.0 mi WNW 9.2 mph - N/A   Clear
1:32 PM 54.0 °F - 34.7 °F 48% 29.66 in 10.0 mi WNW 6.9 mph - N/A   Clear
1:52 PM 54.1 °F - 34.3 °F 47% 29.65 in 10.0 mi West 5.8 mph - N/A   Clear
2:12 PM 54.5 °F - 34.0 °F 46% 29.65 in 10.0 mi WNW 5.8 mph 10.4 mph N/A   Clear
2:32 PM 54.5 °F - 33.6 °F 45% 29.64 in 10.0 mi NW 8.1 mph - N/A   Clear
2:52 PM 54.1 °F - 33.1 °F 45% 29.64 in 10.0 mi WNW 5.8 mph - N/A   Clear
3:12 PM 54.5 °F - 33.1 °F 44% 29.64 in 10.0 mi WNW 8.1 mph - N/A   Clear
3:32 PM 54.9 °F - 33.1 °F 44% 29.64 in 10.0 mi West 4.6 mph - N/A   Clear
3:52 PM 55.0 °F - 32.5 °F 43% 29.64 in 10.0 mi West 4.6 mph - N/A   Clear
4:12 PM 54.3 °F - 32.2 °F 43% 29.64 in 10.0 mi NW 4.6 mph - N/A   Clear
4:32 PM 52.0 °F - 32.5 °F 48% 29.64 in 10.0 mi Calm Calm - N/A   Clear
4:52 PM 54.3 °F - 32.0 °F 43% 29.65 in 10.0 mi West 5.8 mph - N/A   Clear
5:12 PM 54.3 °F - 31.1 °F 41% 29.64 in 10.0 mi West 5.8 mph - N/A   Clear
5:32 PM 53.6 °F - 31.1 °F 42% 29.65 in 10.0 mi West 4.6 mph - N/A   Clear
5:52 PM 52.7 °F - 32.9 °F 47% 29.66 in 10.0 mi West 6.9 mph - N/A   Clear
6:12 PM 50.5 °F - 34.0 °F 53% 29.66 in 10.0 mi WSW 6.9 mph - N/A   Clear
6:32 PM 49.1 °F - 34.0 °F 56% 29.67 in 10.0 mi WSW 5.8 mph - N/A   Clear
6:52 PM 48.6 °F - 34.2 °F 58% 29.67 in 10.0 mi West 4.6 mph - N/A   Clear
7:12 PM 47.7 °F - 34.2 °F 60% 29.68 in 10.0 mi WSW 4.6 mph - N/A   Clear
7:32 PM 46.6 °F - 34.3 °F 62% 29.68 in 10.0 mi West 5.8 mph - N/A   Clear
7:52 PM 46.4 °F - 34.2 °F 62% 29.68 in 10.0 mi Calm Calm - N/A   Clear
8:12 PM 45.7 °F - 34.3 °F 65% 29.68 in 10.0 mi Calm Calm - N/A   Clear
8:32 PM 44.6 °F 43.1 °F 34.2 °F 67% 29.69 in 10.0 mi WNW 3.5 mph - N/A   Clear
8:52 PM 44.6 °F 43.1 °F 34.7 °F 68% 29.70 in 10.0 mi West 3.5 mph - N/A   Scattered Clouds
9:12 PM 43.9 °F 41.3 °F 34.3 °F 69% 29.70 in 10.0 mi West 4.6 mph - N/A   Scattered Clouds
9:32 PM 43.3 °F 41.7 °F 34.0 °F 70% 29.69 in 10.0 mi NNW 3.5 mph - N/A   Clear
9:52 PM 41.5 °F - 33.4 °F 73% 29.69 in 10.0 mi Calm Calm - N/A   Clear
10:12 PM 43.5 °F - 34.0 °F 69% 29.70 in 10.0 mi Calm Calm - N/A   Clear
10:32 PM 43.3 °F 41.7 °F 33.4 °F 68% 29.69 in 10.0 mi NW 3.5 mph - N/A   Scattered Clouds
10:52 PM 42.3 °F 40.5 °F 33.6 °F 71% 29.68 in 10.0 mi North 3.5 mph - N/A   Scattered Clouds
11:12 PM 42.4 °F - 33.4 °F 70% 29.69 in 10.0 mi Calm Calm - N/A   Scattered Clouds
11:32 PM 42.1 °F - 33.3 °F 71% 29.70 in 10.0 mi Calm Calm - N/A   Scattered Clouds
11:52 PM 43.3 °F - 32.9 °F 67% 29.70 in 10.0 mi Calm Calm - N/A   Scattered Clouds